Change the Weather History Date:

Friday, October 5, 2012

  Actual Average Record
Temperature  
Mean Temperature 45 °F 56 °F  
Max Temperature 62 °F 72 °F 88 °F (1993)
Min Temperature 28 °F 41 °F 24 °F (1991)
Degree Days  
Heating Degree Days 20 9  
Month to date heating degree days 48 42  
Since 1 July heating degree days 124 152  
Cooling Degree Days 0 0  
Month to date cooling degree days 0 0  
Year to date cooling degree days 1175 716  
Moisture  
Dew Point 26 °F    
Average Humidity 52    
Maximum Humidity 75    
Minimum Humidity 29    
Precipitation  
Precipitation 0.00 in 0.02 in 0.23 in (1989)
Month to date precipitation T 0.13  
Year to date precipitation 11.83  
Sea Level Pressure  
Sea Level Pressure 30.11 in    
Wind  
Wind Speed 9 mph (NNW)    
Max Wind Speed 26 mph    
Max Gust Speed 33 mph    
Visibility 10 miles    
Events      
T = Trace of Precipitation, MM = Missing Value Source: NWS Daily Summary

Daily Weather History Graph

Daily Weather History Graph

Search for Another Location

Airport or City:

Trip Planner

Search our weather history database for the weather conditions in past years. The results will help you decide how hot, cold, wet, or windy it might be!

Date:

Astronomy

Oct. 05, 2012 Rise Set
Actual Time 6:56 AM MDT 6:33 PM MDT
Civil Twilight 6:30 AM MDT 6:59 PM MDT
Nautical Twilight 6:00 AM MDT 7:29 PM MDT
Astronomical Twilight 5:30 AM MDT 8:00 PM MDT
Moon 10:05 PM MDT (10/5) 12:00 PM MDT (10/5)
Length of Visible Light 12h 29m
Length of Day
11h 37m
Waning Gibbous, 73% of the Moon is Illuminated
Oct 5
Waning Gibbous
Oct 8
Last Quarter
Oct 15
New
Oct 21
First Quarter
Oct 29
Full

Hourly Weather History & Observations

Time (MDT) Temp. Windchill Dew Point Humidity Pressure Visibility Wind Dir Wind Speed Gust Speed Precip Events Conditions
12:54 AM 34.0 °F 28.0 °F 21.9 °F 61% 30.12 in 10.0 mi NNW 6.9 mph - N/A   Clear
1:54 AM 33.1 °F 26.1 °F 21.0 °F 61% 30.12 in 10.0 mi WNW 8.1 mph - N/A   Clear
2:54 AM 34.0 °F 28.0 °F 21.9 °F 61% 30.09 in 10.0 mi NW 6.9 mph - N/A   Clear
3:54 AM 35.1 °F 29.3 °F 21.9 °F 59% 30.07 in 10.0 mi NW 6.9 mph - N/A   Clear
4:54 AM 30.9 °F 25.2 °F 21.0 °F 67% 30.05 in 10.0 mi WSW 5.8 mph - N/A   Clear
5:54 AM 36.0 °F 33.3 °F 21.9 °F 57% 30.03 in 10.0 mi NW 3.5 mph - N/A   Clear
6:54 AM 28.9 °F 22.8 °F 21.0 °F 72% 30.09 in 10.0 mi NW 5.8 mph - N/A   Clear
7:54 AM 35.1 °F 28.6 °F 21.9 °F 59% 30.11 in 10.0 mi NW 8.1 mph - N/A   Clear
8:54 AM 44.1 °F 39.5 °F 25.0 °F 47% 30.13 in 10.0 mi NNE 8.1 mph - N/A   Clear
9:54 AM 46.0 °F 43.1 °F 25.0 °F 44% 30.14 in 10.0 mi North 5.8 mph - N/A   Clear
10:54 AM 48.9 °F - 27.0 °F 43% 30.12 in 10.0 mi Variable 3.5 mph - N/A   Clear
11:54 AM 50.0 °F - 27.0 °F 41% 30.10 in 10.0 mi South 6.9 mph - N/A   Clear
12:54 PM 55.9 °F - 27.0 °F 33% 30.04 in 10.0 mi Variable 5.8 mph - N/A   Clear
1:54 PM 57.9 °F - 28.9 °F 33% 30.02 in 10.0 mi ENE 9.2 mph - N/A   Clear
2:54 PM 61.0 °F - 28.9 °F 30% 30.00 in 10.0 mi NE 8.1 mph - N/A   Clear
3:54 PM 61.0 °F - 28.9 °F 30% 30.01 in 10.0 mi North 18.4 mph 23.0 mph N/A   Clear
4:54 PM 54.0 °F - 33.1 °F 45% 30.07 in 10.0 mi North 19.6 mph 25.3 mph N/A   Clear
5:54 PM 46.9 °F - 32.0 °F 56% 30.12 in 10.0 mi North 19.6 mph 28.8 mph N/A   Mostly Cloudy
6:54 PM 43.0 °F 35.1 °F 30.9 °F 62% 30.19 in 10.0 mi North 17.3 mph 32.2 mph N/A   Overcast
7:46 PM 42.8 °F 36.2 °F 30.2 °F 61% 30.23 in 10.0 mi North 12.7 mph - N/A   Overcast
7:54 PM 42.1 °F 35.7 °F 30.0 °F 62% 30.22 in 10.0 mi North 11.5 mph - N/A   Overcast
8:54 PM 41.0 °F 35.8 °F 28.9 °F 62% 30.20 in 10.0 mi NNW 8.1 mph - N/A   Overcast
9:54 PM 39.9 °F 35.8 °F 28.9 °F 65% 30.20 in 10.0 mi NW 5.8 mph - N/A   Overcast
10:54 PM 39.0 °F 34.8 °F 28.9 °F 67% 30.18 in 10.0 mi NW 5.8 mph - N/A   Overcast
11:54 PM 39.0 °F 32.3 °F 28.9 °F 67% 30.15 in 10.0 mi NE 10.4 mph - N/A   Overcast